Theta_e
334 334 333 332 331 330 329 329 329 328 327 327 328 327 326 324 322 321 321 321 319 314 310 307 306 305 304 303 302 301 301 301 301 301 301 301 301 301 301 301 300 300 300 299 299 299 300 301 299 297 296 296 296 296 296 296 296 296 295 295 295 295 295
334 333 333 332 330 329 329 328 328 327 327 328 327 325 323 322 322 321 319 318 314 309 307 305 304 303 302 301 300 300 300 300 301 301 301 301 301 301 300 300 300 299 299 299 300 299 298 300 299 297 296 296 296 295 295 295 295 295 295 295 295 295 295
333 332 332 331 330 329 328 327 327 327 326 326 325 323 322 322 320 319 317 313 310 307 304 303 302 301 300 300 300 300 300 300 300 300 300 300 300 300 299 299 299 299 299 299 299 299 299 298 298 297 297 296 296 295 295 295 295 295 295 295 295 295 295
332 332 331 331 330 329 328 327 326 326 325 324 323 322 322 320 318 316 312 309 306 304 303 301 300 299 299 299 299 299 299 300 300 300 300 300 300 300 299 300 300 299 299 299 299 298 298 298 297 297 297 296 296 295 295 295 295 295 295 294 294 295 295
333 332 331 330 330 329 328 327 326 325 324 323 322 321 320 317 315 312 308 306 304 302 301 300 299 299 299 299 299 299 299 299 299 299 300 300 299 300 300 299 299 299 299 299 298 298 298 297 297 296 296 296 296 295 295 295 295 295 295 294 294 295 295
333 332 331 330 329 329 328 327 326 324 323 322 321 319 316 313 310 307 305 303 301 300 300 299 299 298 298 298 298 299 299 299 299 299 299 299 299 299 299 299 298 298 298 298 297 297 297 296 296 296 296 296 296 296 295 295 295 295 295 294 294 294 294
331 331 331 330 329 328 328 327 326 324 322 321 319 316 311 308 306 304 302 301 300 299 299 298 298 298 298 298 298 298 299 299 298 299 299 299 299 299 298 298 298 298 297 297 296 296 296 296 295 295 295 296 296 296 296 295 295 295 295 295 294 294 294
330 330 330 329 328 328 328 327 326 324 321 319 316 311 306 304 303 301 301 300 300 299 299 298 298 298 298 298 298 298 299 298 298 299 299 298 298 298 298 297 297 297 297 296 296 295 295 295 295 295 295 295 295 296 296 295 295 294 294 294 294 294 294
330 330 329 329 329 329 328 326 325 322 319 317 312 306 303 302 301 300 300 300 299 299 299 298 298 298 297 297 298 298 298 298 298 298 298 298 298 297 297 297 296 296 296 295 295 295 295 294 294 294 294 294 294 296 296 295 294 294 294 294 294 294 294
330 329 329 330 329 328 327 325 322 319 317 314 308 303 301 300 300 300 300 299 299 299 298 298 297 297 297 297 297 298 298 297 297 298 297 297 297 296 296 296 296 296 295 295 295 294 294 294 294 294 294 293 293 295 296 296 294 294 294 294 293 294 294
329 329 330 330 328 327 326 323 320 317 315 311 304 301 300 299 299 299 299 299 298 298 298 297 297 297 297 297 297 297 297 297 297 297 296 296 296 296 295 295 295 295 295 294 294 294 294 294 294 293 293 293 293 293 294 295 295 293 293 293 293 293 293
329 330 330 329 328 326 324 321 318 316 313 307 301 299 299 298 298 298 298 298 298 297 297 297 297 297 297 297 297 297 297 296 296 296 296 296 296 295 295 295 295 294 294 294 294 293 293 294 293 293 293 293 292 292 292 293 295 294 292 293 293 293 293
331 330 329 328 327 325 321 319 317 314 311 304 299 299 299 298 298 297 297 297 297 297 297 297 297 297 297 297 297 296 296 296 296 296 296 295 295 295 295 294 294 294 293 293 293 293 293 293 293 293 293 292 292 292 292 292 294 294 292 293 293 292 292
331 330 329 327 325 322 320 317 315 313 308 301 298 298 297 297 297 297 297 296 296 296 296 296 296 296 296 296 296 296 296 296 296 296 296 295 295 295 294 294 294 293 293 293 293 293 293 293 293 292 292 292 292 292 291 291 292 292 292 293 292 292 292
330 329 328 326 323 321 318 316 314 310 304 299 297 297 297 297 297 296 296 296 296 296 296 296 296 296 296 296 296 296 296 296 296 296 295 295 295 295 294 294 294 293 293 293 293 293 293 293 293 292 292 292 292 292 291 291 291 291 292 292 292 292 292
329 328 326 324 322 320 317 315 312 307 302 298 297 297 296 296 296 296 296 296 296 296 296 296 296 296 296 296 296 296 296 296 296 295 295 295 295 295 294 294 294 293 293 293 293 293 292 292 292 292 292 292 292 292 292 291 291 291 291 291 291 291 291
328 327 324 322 321 319 316 314 310 304 300 298 297 296 296 296 296 296 295 295 295 295 296 296 295 296 296 296 295 296 296 296 296 295 295 295 295 295 294 294 294 293 293 293 293 292 292 292 292 292 292 292 292 292 292 292 291 291 291 291 291 291 291
326 324 323 321 319 317 314 313 308 302 299 298 296 296 296 296 296 295 295 295 295 295 295 295 295 296 296 296 296 296 296 296 295 295 295 295 295 294 294 294 293 293 293 293 293 293 292 292 292 292 292 292 292 292 292 292 291 291 291 291 291 291 291
324 322 321 319 318 315 313 311 306 301 299 298 296 296 296 295 296 295 295 295 295 295 295 295 295 295 296 296 295 296 296 295 295 295 295 294 294 294 293 293 293 293 293 293 293 293 292 292 292 291 291 291 292 292 292 292 291 291 291 291 291 291 291
322 321 319 317 316 314 312 310 305 300 298 298 297 296 295 295 295 295 295 295 295 295 295 295 295 295 295 295 295 296 295 295 294 294 294 294 294 293 293 293 293 293 293 292 293 293 292 292 291 291 291 291 291 291 291 291 291 291 291 291 291 291 291
321 319 317 316 315 313 311 309 304 299 298 298 297 295 295 295 295 295 295 295 295 295 295 295 295 295 295 295 295 295 295 294 294 294 294 294 293 293 293 293 293 293 293 292 292 292 292 291 291 291 291 291 291 291 291 291 291 291 291 291 291 290 291
319 317 316 315 314 311 310 308 303 300 299 298 296 295 295 295 295 295 295 295 295 295 294 294 295 295 295 295 295 295 295 295 294 294 294 293 293 293 293 293 293 293 293 292 292 292 292 291 291 291 291 291 291 291 291 291 291 291 291 291 290 290 291
317 316 315 314 312 310 309 307 303 301 300 298 296 295 295 295 295 295 295 295 295 294 294 294 295 295 295 295 295 295 295 295 294 294 294 294 293 293 293 293 293 293 293 292 292 292 291 291 291 291 290 290 290 291 291 291 291 291 291 291 290 290 291
316 315 314 312 311 309 308 306 304 302 300 298 296 295 294 295 295 295 295 295 294 294 294 294 295 294 294 295 295 294 294 294 294 294 294 293 293 293 293 293 293 293 293 292 292 292 291 291 291 291 291 291 290 290 290 290 291 291 291 291 290 290 291
315 314 313 311 310 308 306 304 303 302 300 297 296 295 295 295 295 295 295 294 294 294 294 294 294 294 294 294 294 294 294 293 293 293 293 293 293 293 293 293 293 293 293 293 292 292 292 292 292 291 291 291 290 290 290 290 290 291 291 291 290 290 291
315 314 312 311 310 307 305 302 301 300 298 296 295 295 295 295 295 295 295 294 294 294 294 294 294 294 294 294 294 293 293 293 293 293 293 293 293 293 293 293 293 293 292 292 292 292 292 292 292 292 292 291 291 290 290 290 290 290 291 291 291 290 290
316 314 313 312 310 308 306 302 299 299 298 296 295 295 295 295 294 294 294 294 294 293 294 294 294 294 293 293 293 293 293 293 293 293 293 293 293 293 293 293 293 292 292 292 292 292 292 292 293 293 292 292 291 291 291 291 290 290 290 291 291 290 290
315 314 313 311 310 309 306 301 300 301 299 296 295 294 294 294 294 294 294 294 293 293 293 293 293 293 293 293 293 293 293 293 292 292 292 293 293 293 293 293 293 292 292 292 292 292 292 293 293 293 293 292 292 291 291 291 290 290 290 290 291 290 290
314 313 312 311 310 308 305 302 302 301 298 296 295 294 294 294 294 294 294 293 293 293 293 293 293 293 293 293 293 293 293 292 292 292 292 292 293 293 293 293 292 292 292 292 292 292 292 293 293 293 293 292 292 292 292 292 291 291 290 290 291 291 290
313 313 312 311 310 308 306 304 303 300 297 295 294 294 294 294 293 293 293 293 293 293 293 293 293 293 293 293 293 293 293 292 292 292 293 293 293 293 293 292 292 292 292 292 292 292 292 293 293 293 293 293 293 293 293 293 292 292 291 291 291 291 291
314 313 312 311 309 308 306 304 301 299 297 295 294 294 294 293 293 293 293 293 294 294 294 294 294 294 294 294 293 293 293 293 293 293 293 293 293 293 293 292 292 292 292 292 292 292 292 293 293 293 293 293 293 293 292 292 292 292 292 291 291 291 291
314 313 312 311 309 308 306 303 300 298 297 295 293 293 293 293 293 293 293 293 294 294 294 294 294 294 294 294 294 293 293 293 293 293 293 293 293 293 292 292 292 292 292 292 292 292 293 293 293 293 293 293 293 292 292 292 292 292 292 292 291 291 291
314 313 312 311 309 307 305 303 300 298 297 295 293 293 293 293 293 293 293 293 293 293 293 294 294 294 294 294 294 293 293 293 293 293 293 293 293 292 292 292 293 292 293 293 293 293 293 293 293 293 292 292 292 292 292 292 292 292 292 292 291 291 291
314 313 311 310 309 306 304 302 301 299 297 295 293 293 293 292 292 292 293 293 293 293 293 294 293 294 294 294 294 293 293 293 293 293 293 293 293 293 293 293 293 293 293 293 293 293 293 293 293 292 292 292 292 292 292 292 292 292 292 292 292 291 290
313 311 311 310 308 306 304 303 301 300 298 295 293 292 292 292 292 292 292 293 293 293 293 293 293 294 294 294 293 293 294 294 294 294 293 293 293 293 293 293 293 293 293 293 293 293 293 293 293 293 292 292 292 292 292 292 292 293 293 292 292 291 290
312 311 310 309 307 306 305 303 302 301 299 296 293 292 292 292 292 292 293 293 293 293 293 293 293 294 294 294 294 294 294 294 294 294 293 293 293 293 293 293 293 293 293 293 294 294 294 293 293 293 293 292 293 293 293 293 293 293 293 293 292 292 291
311 311 310 308 307 305 304 303 302 301 300 299 295 293 292 292 292 292 293 293 293 293 293 293 293 294 294 294 294 294 294 294 294 293 293 293 293 293 293 293 293 294 294 294 294 294 294 294 294 294 293 293 293 293 293 293 293 293 293 292 292 292 291
Wind_Speed
12 11 10 10 10 9 8 8 8 9 10 12 14 14 13 12 12 10 9 6 5 5 6 6 6 6 6 6 6 7 7 8 8 8 9 10 10 11 13 12 12 12 11 12 12 11 8 5 9 17 17 17 17 18 19 19 18 19 20 20 21 22 23
11 11 11 10 9 8 8 8 8 10 12 14 14 12 11 10 10 8 6 4 5 6 6 6 5 6 6 6 7 8 8 9 9 10 10 11 12 12 13 13 12 12 12 12 12 13 13 10 12 18 19 19 20 20 19 18 17 18 20 21 23 24 24
12 12 11 11 10 9 8 7 8 11 14 14 11 9 10 10 9 7 3 4 6 6 6 5 5 6 6 7 8 9 9 9 11 11 11 13 13 13 13 12 12 13 12 13 14 15 15 14 15 17 19 20 21 21 21 20 20 21 23 24 24 25 26
11 12 11 11 10 8 7 6 9 12 13 11 9 10 10 9 7 3 3 5 6 6 5 5 5 6 7 8 9 9 9 10 12 12 12 13 13 12 12 12 13 14 13 14 15 15 15 16 16 17 18 19 21 21 20 20 20 22 25 25 25 26 27
10 9 9 8 7 6 6 7 10 13 12 10 10 11 9 6 3 2 5 6 5 5 5 5 6 7 9 9 9 9 10 12 13 12 12 13 13 12 13 13 14 13 13 14 14 15 15 15 16 17 18 19 20 20 19 20 20 20 23 25 26 27 27
10 8 7 6 6 6 8 9 11 13 11 11 11 9 5 2 2 5 6 5 5 5 5 6 7 8 9 9 9 10 11 12 12 12 12 13 13 13 13 13 13 13 14 14 15 15 16 16 17 19 20 20 20 20 21 21 20 21 23 24 25 27 28
10 9 8 7 8 8 9 10 12 13 13 13 11 5 0 4 6 6 6 5 5 5 6 7 8 9 10 10 10 11 11 12 12 12 13 13 12 12 13 13 14 14 15 15 16 17 18 19 20 21 22 22 22 21 22 22 23 24 25 24 25 26 28
11 10 9 9 9 9 9 10 12 14 14 13 6 2 5 6 7 6 5 5 5 5 6 7 8 10 10 10 10 11 11 13 12 12 12 12 12 12 13 14 14 15 16 17 17 18 19 20 21 22 23 24 24 24 24 24 24 26 27 26 26 27 28
12 11 10 10 11 10 10 11 14 14 14 9 1 6 6 7 7 6 5 5 5 6 6 7 8 10 10 10 10 11 12 12 11 11 11 11 12 13 13 14 15 15 16 17 18 19 20 21 22 22 23 24 24 23 24 26 26 26 28 30 29 29 29
13 12 12 13 12 10 11 13 14 13 11 3 6 8 7 8 7 6 5 5 5 6 6 7 8 10 10 10 10 10 11 11 10 11 11 11 12 13 13 14 14 15 16 17 18 19 20 20 21 22 22 23 22 20 19 23 27 28 28 30 32 31 31
13 13 14 15 12 10 12 14 12 11 6 4 9 8 8 8 7 7 6 5 5 6 6 7 9 10 10 9 9 9 10 11 10 11 11 11 12 13 13 14 14 15 16 17 18 18 19 20 20 21 21 21 22 20 17 18 23 27 30 31 32 32 32
13 15 17 15 12 13 14 12 10 8 3 9 10 8 8 8 7 7 6 6 6 6 7 8 9 9 9 8 8 9 10 10 9 10 11 11 12 12 13 14 14 15 16 17 17 18 19 19 20 20 20 21 22 22 22 20 20 26 31 32 32 32 32
17 18 17 14 14 15 12 9 9 6 7 11 10 9 9 8 8 8 7 7 6 6 7 7 8 8 8 7 7 8 9 9 9 10 10 11 11 12 12 13 14 15 16 16 17 17 18 18 19 20 21 22 23 24 26 24 23 28 32 32 33 34 34
20 19 16 16 16 13 9 9 8 6 10 11 10 11 10 9 9 8 8 7 7 7 6 6 7 7 7 7 7 8 9 8 8 9 9 9 10 11 11 12 13 15 15 16 16 17 18 18 19 21 21 22 24 24 26 27 26 31 33 33 35 36 37
19 18 17 17 15 11 9 9 7 9 13 12 12 12 10 10 9 8 8 7 7 7 6 5 5 6 7 7 7 8 8 8 7 8 8 8 9 10 11 12 13 14 15 15 16 17 18 19 20 21 22 23 24 24 25 27 28 31 35 36 37 38 40
19 19 18 16 13 11 10 8 7 12 14 12 12 12 10 10 9 9 8 7 7 6 5 5 5 6 6 7 7 7 7 7 7 7 8 8 9 9 10 12 13 14 15 15 17 18 18 19 20 21 22 23 24 24 24 26 28 31 35 38 39 40 41
20 19 16 15 13 11 10 8 10 14 14 12 12 11 10 10 9 9 8 8 7 6 5 5 4 5 6 6 6 6 6 6 6 7 7 7 8 9 10 12 13 13 14 15 17 18 19 20 21 22 23 24 24 24 25 25 28 30 35 38 39 40 41
19 18 16 15 13 12 11 9 12 14 13 12 11 10 10 10 10 9 8 8 7 6 6 5 4 5 6 6 6 6 6 6 6 7 8 8 8 9 10 12 12 13 14 16 17 18 20 20 21 23 23 24 24 25 26 27 29 31 34 38 40 41 42
19 17 16 15 14 13 11 10 13 14 13 12 11 10 10 10 10 9 9 9 8 7 6 5 5 5 5 6 6 6 5 6 6 7 8 8 8 9 10 11 12 13 14 16 17 19 20 21 22 23 23 23 24 26 27 29 31 33 35 37 40 42 43
18 17 16 16 14 13 12 12 14 14 13 13 11 11 11 10 10 10 9 9 8 7 7 6 5 5 5 6 6 6 5 6 6 7 8 8 8 9 10 11 12 13 14 15 17 19 20 21 22 22 22 24 25 27 29 30 32 34 36 38 39 41 43
17 17 17 16 15 14 13 15 16 15 14 13 12 12 11 10 10 10 10 10 9 8 7 6 5 5 5 5 6 6 6 6 7 7 7 7 8 8 9 10 11 12 13 15 16 18 19 21 22 21 22 24 25 27 29 31 33 34 36 38 39 40 42
17 17 18 17 16 15 15 16 16 15 14 13 13 13 12 11 10 10 10 10 9 9 8 7 6 5 5 5 6 6 6 7 6 6 6 6 7 7 8 9 10 11 12 14 15 16 18 20 21 21 22 23 25 27 29 30 32 34 36 38 39 40 41
18 19 19 17 15 14 15 16 16 15 13 13 13 13 13 13 12 11 10 10 10 9 8 7 6 6 5 5 6 6 5 6 5 5 5 5 6 6 7 8 9 10 11 13 14 15 17 19 19 20 21 22 24 26 28 29 31 33 35 37 38 39 39
20 20 19 17 15 15 16 16 15 14 13 13 13 14 14 13 12 12 11 10 10 9 8 7 7 6 6 6 5 5 5 4 4 4 3 4 4 5 7 7 8 9 11 13 14 15 17 18 19 19 19 20 21 23 26 28 30 32 34 35 37 38 37
20 20 19 16 15 15 16 17 15 13 13 13 14 15 14 13 12 12 12 11 11 10 9 8 7 6 6 6 5 5 4 4 3 3 2 2 3 5 6 6 7 9 11 12 14 15 17 18 18 19 19 19 20 21 23 25 28 30 32 34 36 37 36
21 20 19 16 16 16 17 17 17 15 14 14 15 15 14 13 13 12 12 12 11 10 9 8 7 7 6 6 6 5 4 4 3 2 1 1 2 4 4 5 6 9 10 12 14 15 17 18 18 19 19 20 21 22 22 23 25 28 30 32 34 35 34
21 21 19 18 18 16 17 18 18 16 16 16 16 15 14 13 13 13 13 13 12 11 10 9 8 7 6 6 5 5 4 3 3 2 1 0 1 2 3 4 6 8 10 12 14 15 16 17 18 19 20 21 22 23 24 25 26 27 29 30 32 33 33
22 22 22 21 19 16 18 20 18 16 16 16 15 14 13 13 14 14 14 13 12 11 10 10 9 7 7 6 5 4 4 3 3 2 1 1 0 1 3 4 6 8 10 12 14 15 16 17 18 19 21 22 23 24 25 27 28 28 29 29 30 32 32
24 24 23 22 20 17 18 20 18 17 16 16 15 15 14 14 14 14 14 14 13 12 11 10 9 7 6 6 5 4 4 3 3 3 2 2 1 1 2 4 6 8 10 12 13 14 16 17 18 20 21 23 24 24 25 27 28 28 28 28 28 29 29
24 23 23 23 21 18 19 20 18 17 17 17 17 16 15 15 15 15 15 15 13 12 11 9 8 7 6 6 6 5 5 4 4 4 3 2 1 1 2 4 6 8 10 11 13 14 16 17 19 21 22 23 24 25 26 27 28 28 28 27 26 27 27
23 22 23 24 21 19 20 21 18 16 16 16 17 16 16 17 17 16 15 14 13 12 11 10 9 8 7 7 6 6 5 6 5 4 3 2 1 1 2 4 6 8 9 10 12 14 15 17 19 21 23 24 25 26 27 28 29 30 30 30 28 27 28
24 23 24 23 20 19 21 20 18 17 16 16 17 17 17 18 18 17 16 15 14 13 12 11 10 9 8 7 7 7 7 6 6 5 4 2 1 1 3 4 6 7 8 9 11 13 15 18 20 21 23 24 25 26 28 29 31 32 32 32 32 31 31
24 24 24 23 20 20 21 21 19 18 18 18 18 18 18 18 18 18 17 16 15 13 12 11 10 9 8 7 7 7 7 6 6 5 4 3 2 2 3 4 5 6 7 9 11 13 15 18 19 21 23 24 25 26 27 28 30 32 33 34 34 35 35
24 24 24 23 21 21 22 21 20 19 20 20 20 19 19 19 18 18 17 16 14 13 12 11 10 9 8 8 7 8 7 6 6 5 4 3 2 2 2 2 3 4 6 8 10 13 15 16 18 20 22 23 23 25 26 28 29 31 32 34 35 36 37
25 24 24 23 23 23 23 22 20 20 20 21 20 20 20 20 20 19 18 16 15 14 13 11 10 9 8 8 8 7 7 6 5 4 4 3 2 1 2 1 2 3 6 8 10 12 14 15 18 19 20 22 22 23 25 27 29 30 32 33 35 36 37
26 25 25 24 25 25 25 24 21 20 21 21 21 20 20 21 21 19 18 17 16 15 13 12 11 9 9 8 7 7 6 5 4 4 3 2 1 1 1 1 2 4 5 8 10 12 14 15 17 19 20 21 22 22 24 25 27 29 31 32 34 36 37
26 25 24 25 26 26 26 25 23 22 22 22 22 22 22 22 22 20 19 18 18 16 14 12 11 10 9 8 7 6 6 5 4 3 2 1 1 1 0 1 2 4 6 8 10 11 13 15 17 19 20 21 22 22 23 25 26 28 30 32 34 35 36
Wind_Direction
231 228 224 226 227 229 234 244 262 276 282 290 301 311 316 318 321 324 327 341 18 49 63 63 58 53 51 49 50 56 54 57 62 55 54 55 50 49 48 47 44 44 46 45 51 54 52 54 25 20 25 27 25 23 19 16 13 11 11 12 11 10 8
221 224 227 229 228 225 232 248 268 282 292 301 309 314 317 321 325 327 336 17 61 74 77 70 61 54 53 57 62 67 66 65 66 61 58 56 52 51 49 46 43 42 41 40 41 39 39 43 26 17 19 19 21 22 19 17 17 15 15 13 12 11 9
215 222 228 225 223 226 235 256 280 292 303 313 317 318 321 327 329 328 355 69 87 87 83 73 67 62 64 71 73 74 73 69 67 63 58 56 54 55 53 50 46 42 38 35 34 31 30 32 25 17 16 16 17 18 16 16 16 18 17 15 13 10 8
222 228 230 227 229 237 253 279 292 299 310 317 319 323 326 328 327 333 71 95 94 87 84 77 71 72 73 76 77 77 74 69 66 61 58 58 57 55 52 46 42 39 36 34 32 29 26 26 23 17 14 15 16 17 15 13 14 15 15 14 12 9 7
229 237 239 242 249 256 278 291 296 304 313 315 317 324 325 321 328 92 105 102 97 94 92 83 76 77 76 77 78 75 70 65 62 58 56 56 52 50 47 42 40 38 36 37 34 30 28 26 24 19 16 15 14 15 14 14 15 14 14 13 9 6 5
226 238 244 253 262 271 282 288 298 305 305 307 316 323 321 308 121 117 111 106 106 103 93 84 80 80 78 76 72 67 64 61 57 54 51 50 47 46 45 43 41 38 37 38 34 31 29 26 23 20 17 15 15 16 15 16 16 13 13 13 8 3 1
221 228 235 250 262 269 273 281 296 298 297 308 319 325 163 138 126 119 115 112 110 101 91 84 80 79 75 70 66 62 59 57 53 49 47 47 46 46 45 43 40 38 38 36 32 30 27 24 22 20 17 14 14 15 16 17 16 11 9 10 9 4 360
217 222 233 248 255 255 261 280 292 291 298 314 327 124 138 132 125 122 120 116 108 98 90 82 77 77 72 65 62 57 56 54 50 47 46 44 44 45 44 41 39 37 36 34 31 28 26 24 22 20 17 15 13 11 13 15 14 9 5 5 7 6 0
215 224 236 242 242 246 261 281 286 287 302 319 93 138 139 135 130 127 125 119 109 97 88 81 76 74 68 62 58 54 54 54 49 47 47 45 45 46 43 40 38 36 36 33 30 28 26 24 22 20 18 19 17 10 7 9 8 7 5 3 3 3 1
217 229 237 235 235 244 266 279 280 290 309 318 141 141 144 142 136 132 129 122 112 99 89 84 77 72 67 61 56 53 54 54 50 50 49 48 48 46 42 40 37 36 36 33 31 29 27 24 22 21 19 19 20 14 3 359 360 1 2 3 1 358 357
219 227 229 228 232 249 270 276 280 296 302 165 149 147 149 145 139 136 132 125 117 106 93 84 76 72 68 60 55 55 56 55 52 53 53 50 49 46 42 40 38 38 38 35 32 31 28 25 23 22 20 18 18 16 5 350 350 356 357 359 0 356 353
217 221 222 225 238 258 270 273 283 292 234 160 153 153 153 148 143 141 136 131 123 107 93 83 76 73 69 62 58 58 62 61 57 57 57 52 50 48 42 40 39 39 39 37 35 32 28 26 25 23 21 17 13 10 7 353 342 351 357 354 356 356 352
214 217 220 231 250 261 263 264 277 268 180 160 157 157 157 153 148 145 138 132 121 105 95 85 80 76 70 66 64 66 70 70 64 62 60 55 53 50 43 41 41 41 41 39 36 33 29 26 25 23 21 18 13 7 5 359 342 345 355 354 352 354 352
213 217 226 241 252 257 255 258 266 218 169 163 162 160 161 156 150 146 137 131 120 109 101 90 86 81 75 73 72 76 79 78 71 66 62 58 55 51 46 45 43 43 42 40 37 33 29 27 24 23 21 17 16 9 4 1 349 343 349 353 352 353 354
215 224 236 244 248 250 251 256 240 185 169 167 165 162 161 155 149 145 139 133 126 121 113 103 95 86 82 80 79 83 85 82 75 69 66 62 57 53 50 48 45 44 42 39 37 34 29 27 24 22 20 17 16 13 6 360 352 343 343 349 353 353 353
227 235 239 240 242 245 248 246 205 176 170 169 167 163 159 154 150 148 145 141 136 132 126 118 106 94 90 86 84 89 90 86 80 74 73 69 61 58 54 50 46 43 42 39 36 34 30 26 23 21 19 16 13 10 6 359 353 346 342 347 353 352 351
233 236 235 234 237 238 238 228 188 171 169 171 171 166 162 158 155 153 150 147 143 139 136 130 117 105 101 96 94 95 93 90 87 84 81 74 66 59 52 49 46 44 42 39 35 33 30 26 23 20 17 14 10 5 2 359 354 350 346 347 351 352 351
230 230 228 229 229 229 230 212 179 170 170 173 172 171 170 164 159 158 155 151 148 146 147 140 127 118 112 109 106 101 97 96 95 93 84 73 64 56 49 46 45 44 41 38 34 30 28 26 22 19 15 10 6 2 360 358 355 352 350 349 350 351 351
225 224 224 222 220 223 223 198 175 171 172 173 175 174 173 168 163 161 158 156 155 155 156 151 139 132 124 118 113 106 101 102 100 92 80 70 61 51 47 44 42 41 38 34 31 26 24 24 21 17 13 8 4 0 359 357 355 353 352 351 351 350 350
223 221 219 214 215 221 213 187 175 175 174 175 176 175 173 170 169 167 163 162 161 161 163 160 150 143 134 124 118 112 109 106 100 90 77 68 60 50 45 43 39 38 34 30 27 22 20 21 20 16 10 6 3 359 358 356 355 354 353 352 351 350 349
219 217 212 209 214 216 199 181 176 178 180 178 175 175 174 174 175 174 169 165 165 168 169 168 160 150 140 129 124 122 116 108 99 90 78 66 58 49 43 41 37 34 31 27 22 18 17 17 16 14 10 6 2 359 357 356 355 354 353 351 351 350 349
214 211 206 207 213 207 191 183 181 180 181 181 177 175 176 177 179 178 173 168 169 173 175 173 166 154 145 137 134 132 123 111 102 90 78 64 56 48 40 37 35 30 29 25 19 16 16 15 12 10 8 5 1 358 355 355 355 354 352 352 350 350 349
210 206 204 207 210 201 190 189 188 183 182 181 179 179 179 178 178 176 174 172 172 177 180 177 170 160 154 149 143 140 131 119 110 97 80 62 50 44 38 33 30 27 24 21 16 15 16 15 12 10 9 6 1 357 353 353 355 354 352 352 350 350 349
205 202 203 204 201 195 193 194 193 189 184 182 182 183 182 180 179 175 172 173 176 181 183 179 175 170 164 158 152 147 142 133 121 107 89 65 46 39 35 29 25 22 19 15 12 13 14 13 11 10 10 8 3 357 353 352 353 354 353 351 350 350 349
202 201 200 198 194 192 192 192 193 192 188 185 185 184 182 181 179 174 171 174 179 183 186 182 179 178 172 166 163 156 151 146 134 116 98 66 41 35 31 25 23 19 15 10 9 12 12 9 9 9 7 7 6 1 356 354 353 353 353 351 350 350 348
202 201 197 191 188 189 191 192 192 190 188 188 187 184 182 179 176 175 173 176 181 184 186 185 183 184 179 172 169 164 161 157 150 143 125 54 30 31 26 21 24 19 9 7 9 11 9 6 7 7 5 5 6 3 359 357 355 355 354 352 350 349 348
203 200 195 189 186 190 197 196 192 189 189 191 187 182 182 178 175 175 174 176 182 184 185 187 188 187 182 177 174 168 165 161 159 173 181 60 12 19 19 18 24 17 6 7 10 8 6 5 5 5 4 5 5 3 360 359 358 357 356 354 351 348 348
201 199 196 190 189 197 201 196 192 191 191 191 187 181 180 178 176 176 176 177 179 182 184 186 188 187 183 181 179 173 172 172 170 186 196 186 337 2 13 17 20 14 7 7 8 5 5 5 4 3 3 5 4 3 1 360 359 358 356 354 352 349 348
199 199 196 192 195 203 199 192 193 194 191 189 184 179 179 179 178 178 178 177 177 180 184 185 185 187 185 184 185 185 187 189 190 197 198 188 208 355 15 18 18 14 9 6 3 3 4 4 3 2 2 4 4 4 3 1 359 358 356 354 353 351 349
202 202 198 197 201 203 196 192 193 193 191 188 182 178 179 179 178 179 179 177 176 179 182 184 185 186 187 189 193 196 196 198 201 202 191 182 185 14 16 19 20 15 10 6 3 3 4 3 3 3 2 2 2 2 2 1 359 358 356 355 355 354 352
209 207 205 204 204 200 193 193 193 191 190 188 182 180 181 179 177 178 179 178 179 182 183 186 188 188 190 195 198 199 199 199 198 192 177 170 159 44 16 17 21 17 12 9 6 4 3 3 4 3 1 1 1 0 359 357 357 356 355 355 356 357 358
209 210 209 208 205 198 194 193 191 187 186 186 184 183 182 181 180 178 178 180 183 185 185 188 192 192 192 195 196 194 193 190 185 173 161 155 130 52 24 20 23 18 13 12 9 5 3 3 4 3 1 360 359 358 356 354 354 353 352 353 356 359 2
208 209 209 208 204 198 195 194 191 186 183 183 186 185 183 183 183 180 179 183 186 187 187 190 193 194 192 192 190 187 185 178 168 158 149 142 120 70 40 28 24 18 14 12 8 5 4 4 3 3 1 359 356 354 353 353 353 352 351 353 356 0 3
207 207 208 208 203 196 195 196 193 188 184 182 183 185 185 184 185 184 183 184 186 187 187 188 189 189 189 188 184 182 179 170 159 149 138 131 117 92 71 49 28 15 12 8 4 5 5 5 3 2 0 358 354 352 351 352 352 353 353 354 357 1 3
206 204 206 206 202 196 196 198 196 191 187 183 182 185 187 186 185 185 183 184 184 184 183 183 184 185 184 181 179 178 174 165 156 144 134 131 127 114 108 87 31 8 4 3 2 4 6 6 4 1 358 356 355 353 352 352 353 354 355 356 358 0 3
204 204 204 203 200 198 197 197 197 195 191 187 184 186 189 188 185 183 184 184 183 182 182 182 183 182 178 175 174 171 164 156 149 144 140 148 167 162 135 60 7 357 357 359 2 6 8 8 6 2 358 356 355 355 355 355 355 356 357 358 358 360 2
204 204 203 200 199 199 199 198 197 197 196 194 190 190 192 191 187 185 186 185 183 183 183 184 185 182 174 171 169 163 158 151 147 145 147 175 211 224 263 341 351 350 353 358 2 8 11 10 6 2 358 355 355 357 358 357 358 358 359 359 359 359 2